ARIANE 2 DEB, 27650

Orbit data source: Space-Track

ARIANE 2 DEB, 27650 is space debris in HEO originally from a launch on Fri, 27 Jan 1989 UTC launched from the French Guiana (FRGUI). Debris objects in space refer to the collection of defunct objects orbiting the Earth. Examples of debris include non-operational satellites, rocket bodies, and fragments generated from explosions, collisions, or faulty payload assembly.

Loading next visibility...
Identifier
27650, 1989-006AE
Orbit
HEO
Country
Flag of FRFR
Related business
Manufacturer
EADS/LV
Mission
Spacecraft
Bus & Motor
Unknown
Mass
Unknown
Launch date (UTC)
1989-01-27 (37 years ago)
Launch vehicle
Unknown
Launch site
French Guiana (FRGUI)
Object type
Payload
Rocket body
Debris
Shape & HBR
Unknown shape, 0.3 m
Radar Cross Section
Medium (>0.1 m² and <1 m²)

Expand to show TLE details & history
Last TLE update: 3 days ago

TLE from 3 days ago
0 ARIANE 2 DEB
1 27650U 89006AE  25347.30411379  .00001520  00000-0  22502-2 0  9993
2 27650   8.7443 331.9270 7200906 279.7502  12.3606  2.33170741203785
Epoch: 2025-12-13T07:17Z
TLE epoch observation values (Epoch: 2025-12-13T07:17:55.431Z)
Latitude
0.00001°
Longitude
140.14138°
Altitude
3,894.234 km
Speed
7.811 km/s
True Right ascension
22h 07m 25s
True Declination
0° 00' 00"
Sunlit
Object was in daylight at epoch
Visualization orbit readout
Latitude
Unknown
Longitude
Unknown
Altitude
Unknown
Speed
Unknown
Apparent Right ascension
Unknown
Apparent Declination
Unknown
Sunlit
N/A
Visualization observer readout
Local Sidereal Time
12:23:32
Azimuth
Unknown
Elevation
Unknown
Doppler factor
Unknown
Orbital elements
Apogee altitude
34,951.968 km
Perigee altitude
347.488 km
Semi-major axis
24,027.865 km
Eccentricity
0.72009
Inclination
8.7443°
RAAN
331.927°
Arg. of periapsis
279.7502°
True anomaly
80.07343°
Mean anomaly
12.3606°
Eccentric anomaly
37.44626°
Mean motion
0.58273 °/min
Orbital period
617.78 mins
BSTAR
0.0022502
Loading maneuver chart data...
Computing Atmospheric mass density...
Loading historical data...
Loading historical data...
Loading historical data...
Loading historical data...
Loading historical data...
Loading historical data...
Loading historical data...

Documentation

Showing up to 5 results
|